User: anonymous   Login
Location: Henham
(51.9333°N, 0.2500°E)
Time: 20:31:59
(UTC+00:00)
Language:

Cosmos 1300 - Orbit

View from above orbital plane
View from above orbital plane
View from above satellite
View from above satellite

Ground track
Ground track

The orbit data is extracted from the following two-line orbital elements,

1 12785U 81082A   19345.04903612  .00000519  00000-0  24285-4 0  9999
2 12785  82.5045 256.0987 0001663  43.9159 326.8485 15.17570143 89347
Epoch (UTC): 11 December 2019 01:10:36
Eccentricity: 0.0001663
inclination: 82.5045°
perigee height: 512 km
apogee height: 514 km
right ascension of ascending node: 256.0987°
argument of perigee: 43.9159°
revolutions per day: 15.17570143
mean anomaly at epoch: 326.8485°
orbit number at epoch: 8934

The dashed part of the orbit path shows where the satellite is in the earth's shadow,  

DLR